Weather History for Grants-Milan, NM

Change the Weather History Date:

Tuesday, September 3, 2013

  Actual Average Record
Temperature  
Mean Temperature 70 °F -  
Max Temperature 84 °F 84 °F 94 °F (1991)
Min Temperature 57 °F 50 °F 39 °F (1961)
Cooling Degree Days 6    
Growing Degree Days 20 (Base 50)    
Moisture  
Dew Point 53 °F    
Average Humidity 62    
Maximum Humidity 96    
Minimum Humidity 27    
Precipitation  
Precipitation 0.01 in - - ()
Sea Level Pressure  
Sea Level Pressure 30.32 in    
Wind  
Wind Speed 3 mph (WNW)    
Max Wind Speed 14 mph    
Max Gust Speed 18 mph    
Visibility 10 miles    
Events Rain , Thunderstorm    
Averages and records for this station are not official NWS values.
T = Trace of Precipitation, MM = Missing Value Source: NWS Daily Summary

Daily Weather History Graph

Daily Weather History Graph

Search for Another Location

Airport:

Trip Planner

Search our weather history database for the weather conditions in past years. The results will help you decide how hot, cold, wet, or windy it might be!

Date:

Astronomy

Sep. 03, 2013 Rise Set
Actual Time 6:45 AM MDT 7:35 PM MDT
Civil Twilight 6:20 AM MDT 8:00 PM MDT
Nautical Twilight 5:49 AM MDT 8:31 PM MDT
Astronomical Twilight 5:18 AM MDT 9:02 PM MDT
Moon 5:04 AM MDT (9/3) 6:23 PM MDT (9/3)
Length of Visible Light 13h 40m
Length of Day
12h 49m
Waning Crescent, 3% of the Moon is Illuminated
Sep 3
Waning Crescent
Sep 5
New
Sep 12
First Quarter
Sep 19
Full
Sep 26
Last Quarter

Hourly Weather History & Observations

Time (MDT) Temp. Dew Point Humidity Pressure Visibility Wind Dir Wind Speed Gust Speed Precip Events Conditions
12:15 AM 58.5 °F 55.2 °F 89% 30.32 in 10.0 mi Calm Calm - N/A   Clear
12:35 AM 58.8 °F 55.6 °F 89% 30.32 in 10.0 mi SSW 3.5 mph - N/A   Clear
12:55 AM 59.0 °F 54.9 °F 86% 30.33 in 10.0 mi South 4.6 mph - N/A   Scattered Clouds
1:15 AM 58.6 °F 55.2 °F 88% 30.32 in 10.0 mi SW 3.5 mph - N/A   Clear
1:35 AM 58.5 °F 55.2 °F 89% 30.33 in 10.0 mi Calm Calm - N/A   Clear
1:55 AM 57.0 °F 54.5 °F 91% 30.33 in 10.0 mi Calm Calm - N/A   Clear
2:15 AM 58.3 °F 55.0 °F 89% 30.32 in 10.0 mi Calm Calm - N/A   Clear
2:35 AM 57.2 °F 54.7 °F 91% 30.32 in 10.0 mi NNW 3.5 mph - N/A   Clear
2:55 AM 57.2 °F 55.4 °F 94% 30.32 in 10.0 mi Calm Calm - N/A   Clear
3:15 AM 57.6 °F 55.4 °F 92% 30.32 in 10.0 mi NW 4.6 mph - N/A   Scattered Clouds
3:35 AM 57.9 °F 55.2 °F 91% 30.31 in 10.0 mi Calm Calm - N/A   Scattered Clouds
3:55 AM 58.1 °F 55.4 °F 91% 30.32 in 10.0 mi Calm Calm - N/A   Mostly Cloudy
4:15 AM 58.1 °F 55.4 °F 91% 30.32 in 10.0 mi NNW 3.5 mph - N/A   Overcast
4:35 AM 57.4 °F 55.4 °F 93% 30.32 in 10.0 mi WNW 3.5 mph - N/A   Overcast
4:55 AM 58.1 °F 55.8 °F 92% 30.32 in 10.0 mi Calm Calm - N/A   Overcast
5:15 AM 58.3 °F 56.1 °F 93% 30.32 in 10.0 mi Calm Calm - N/A   Overcast
5:35 AM 59.2 °F 56.3 °F 90% 30.32 in 10.0 mi Calm Calm - N/A   Overcast
5:55 AM 58.5 °F 56.7 °F 94% 30.33 in 10.0 mi Calm Calm - N/A Rain Light Rain
6:15 AM 58.6 °F 57.2 °F 95% 30.34 in 10.0 mi Calm Calm - 0.01 in Rain Light Rain
6:35 AM 58.5 °F 57.2 °F 96% 30.34 in 10.0 mi North 4.6 mph - 0.01 in Rain Light Rain
6:55 AM 59.2 °F 56.3 °F 90% 30.35 in 10.0 mi NNE 4.6 mph - 0.01 in   Drizzle
7:15 AM 59.0 °F 56.7 °F 92% 30.36 in 10.0 mi Calm Calm - N/A   Overcast
7:35 AM 59.5 °F 57.0 °F 91% 30.37 in 10.0 mi Calm Calm - N/A   Overcast
7:55 AM 60.6 °F 58.1 °F 91% 30.37 in 10.0 mi Calm Calm - N/A   Overcast
8:15 AM 61.9 °F 57.7 °F 86% 30.37 in 10.0 mi Calm Calm - N/A   Light Drizzle
8:35 AM 64.2 °F 58.1 °F 80% 30.37 in 10.0 mi Calm Calm - N/A   Overcast
8:55 AM 66.9 °F 58.1 °F 73% 30.36 in 10.0 mi Calm Calm - N/A   Overcast
9:15 AM 68.0 °F 57.4 °F 69% 30.35 in 10.0 mi Calm Calm - N/A   Scattered Clouds
9:35 AM 68.9 °F 55.0 °F 61% 30.36 in 10.0 mi Calm Calm - N/A   Clear
9:55 AM 68.9 °F 55.8 °F 63% 30.37 in 10.0 mi Calm Calm - N/A   Clear
10:15 AM 69.1 °F 57.7 °F 67% 30.37 in 10.0 mi South 3.5 mph - N/A   Scattered Clouds
10:35 AM 69.3 °F 57.4 °F 66% 30.37 in 10.0 mi Calm Calm - N/A   Mostly Cloudy
10:55 AM 70.5 °F 56.1 °F 60% 30.37 in 10.0 mi Calm Calm - N/A   Overcast
11:15 AM 71.2 °F 54.7 °F 56% 30.37 in 10.0 mi Calm Calm - N/A   Overcast
11:35 AM 72.0 °F 54.3 °F 54% 30.37 in 10.0 mi Calm Calm - N/A   Overcast
11:55 AM 72.5 °F 55.6 °F 55% 30.36 in 10.0 mi SE 3.5 mph - N/A   Overcast
12:15 PM 72.9 °F 54.5 °F 52% 30.36 in 10.0 mi Calm Calm - N/A   Overcast
12:35 PM 75.9 °F 50.2 °F 40% 30.35 in 10.0 mi SSW 3.5 mph - N/A   Scattered Clouds
12:55 PM 77.4 °F 50.0 °F 38% 30.34 in 10.0 mi Calm Calm - N/A   Clear
1:15 PM 78.3 °F 51.1 °F 39% 30.33 in 10.0 mi NW 3.5 mph - N/A   Clear
1:35 PM 79.7 °F 50.2 °F 36% 30.32 in 10.0 mi WSW 3.5 mph - N/A   Clear
1:55 PM 81.1 °F 47.3 °F 30% 30.31 in 10.0 mi NE 5.8 mph - N/A   Clear
2:15 PM 81.3 °F 47.7 °F 31% 30.30 in 10.0 mi South 4.6 mph - N/A   Clear
2:35 PM 82.0 °F 47.7 °F 30% 30.29 in 10.0 mi SSW 6.9 mph - N/A   Clear
2:55 PM 81.9 °F 47.8 °F 30% 30.28 in 10.0 mi West 5.8 mph - N/A   Scattered Clouds
3:15 PM 82.9 °F 48.0 °F 29% 30.27 in 10.0 mi South 4.6 mph - N/A   Mostly Cloudy
3:35 PM 82.9 °F 48.7 °F 30% 30.26 in 10.0 mi SW 5.8 mph - N/A   Mostly Cloudy
3:55 PM 83.7 °F 46.8 °F 27% 30.26 in 10.0 mi Calm Calm - N/A   Scattered Clouds
4:15 PM 84.4 °F 47.1 °F 27% 30.26 in 10.0 mi South 5.8 mph - N/A   Mostly Cloudy
4:35 PM 82.9 °F 48.0 °F 29% 30.26 in 10.0 mi West 3.5 mph - N/A   Overcast
4:55 PM 82.6 °F 46.0 °F 28% 30.24 in 10.0 mi South 4.6 mph - N/A   Overcast
5:15 PM 81.1 °F 46.0 °F 29% 30.24 in 10.0 mi NW 4.6 mph - N/A   Mostly Cloudy
5:35 PM 82.8 °F 48.7 °F 30% 30.24 in 10.0 mi NW 6.9 mph - N/A   Mostly Cloudy
5:55 PM 83.5 °F 47.7 °F 29% 30.24 in 10.0 mi NNW 6.9 mph - N/A   Overcast
6:15 PM 81.3 °F 47.5 °F 30% 30.24 in 10.0 mi NNW 8.1 mph - N/A   Overcast
6:35 PM 81.1 °F 46.2 °F 29% 30.24 in 10.0 mi NNE 13.8 mph 18.4 mph N/A   Overcast
6:55 PM 79.0 °F 45.5 °F 31% 30.24 in 10.0 mi North 10.4 mph - N/A   Overcast
7:15 PM 77.9 °F 45.3 °F 31% 30.25 in 10.0 mi North 5.8 mph - N/A   Mostly Cloudy
7:35 PM 76.1 °F 47.7 °F 37% 30.26 in 10.0 mi NW 6.9 mph - N/A   Mostly Cloudy
7:55 PM 75.2 °F 48.0 °F 38% 30.28 in 10.0 mi WNW 3.5 mph - N/A   Overcast
8:15 PM 72.5 °F 51.3 °F 47% 30.28 in 10.0 mi WNW 4.6 mph - N/A Thunderstorm Overcast
8:35 PM 71.1 °F 52.0 °F 51% 30.28 in 10.0 mi WNW 9.2 mph - N/A   Overcast
8:55 PM 70.2 °F 51.1 °F 51% 30.31 in 10.0 mi NW 9.2 mph - N/A   Overcast
9:15 PM 68.9 °F 52.2 °F 55% 30.31 in 10.0 mi NW 8.1 mph - N/A   Mostly Cloudy
9:35 PM 68.2 °F 52.7 °F 58% 30.31 in 10.0 mi North 8.1 mph - N/A   Scattered Clouds
9:55 PM 67.5 °F 54.5 °F 63% 30.33 in 10.0 mi North 5.8 mph - N/A   Mostly Cloudy
10:15 PM 66.2 °F 54.1 °F 65% 30.33 in 10.0 mi North 5.8 mph - N/A   Scattered Clouds
10:35 PM 66.2 °F 53.6 °F 64% 30.34 in 10.0 mi North 6.9 mph - N/A   Scattered Clouds
10:55 PM 65.5 °F 54.1 °F 67% 30.34 in 10.0 mi NW 4.6 mph - N/A   Overcast
11:15 PM 66.2 °F 53.6 °F 64% 30.34 in 10.0 mi WNW 9.2 mph - N/A   Scattered Clouds
11:35 PM 67.1 °F 52.9 °F 60% 30.34 in 10.0 mi WNW 8.1 mph - N/A   Clear
11:55 PM 64.4 °F 53.1 °F 67% 30.34 in 10.0 mi NW 3.5 mph - N/A   Scattered Clouds